Location: Monfort
(47.1967°N, 0.2115°W)
Time: 10:39:03
(UTC+00:00)

SeaSat 1 - Pass Details

Date: 24 October 2020
Orbit: 744 x 747 km, 108.0° (Epoch: 28 November)

Event Time Altitude Azimuth Distance (km) Brightness Sun altitude
Exits shadow 18:14:52 19° 107° (ESE) 1,738 3.8 -13.9°
Maximum altitude 18:17:51 37° 51° (NE) 1,160 3.0 -14.4°
Drops below altitude 10° 18:22:22 10° 345° (NNW) 2,274 5.1 -15.2°
Sets 18:24:46 0° 338° (NNW) 3,203 6.0 -15.6°
